Year,Month,Day,Hour,Minute,Value (Times are PST for temperature in C)
2010,07,18,09,06,18.20
2010,07,18,09,07,18.30
2010,07,18,09,08,18.40
2010,07,18,09,09,18.40
2010,07,18,09,10,18.50
2010,07,18,09,11,18.60
2010,07,18,09,12,18.70
2010,07,18,09,13,18.80
2010,07,18,09,14,18.80
2010,07,18,09,15,18.70
2010,07,18,09,16,18.70
2010,07,18,09,17,18.50
2010,07,18,09,18,18.30
2010,07,18,09,19,18.30
2010,07,18,09,20,18.30
2010,07,18,09,21,18.20
2010,07,18,09,22,18.10
2010,07,18,09,23,18.00
2010,07,18,09,24,17.90
2010,07,18,09,25,17.90
2010,07,18,09,26,17.90
2010,07,18,09,27,17.90
2010,07,18,09,28,18.00
2010,07,18,09,29,18.00
2010,07,18,09,30,18.10
2010,07,18,09,31,18.00
2010,07,18,09,32,18.10
2010,07,18,09,33,18.10
2010,07,18,09,34,18.10
2010,07,18,09,35,18.10
2010,07,18,09,36,18.10
2010,07,18,09,37,18.10
2010,07,18,09,38,17.90
2010,07,18,09,39,17.80
2010,07,18,09,40,17.80
2010,07,18,09,41,17.70
2010,07,18,09,42,17.70
2010,07,18,09,43,17.70
2010,07,18,09,44,17.70
2010,07,18,09,45,17.80
2010,07,18,09,46,17.80
2010,07,18,09,47,17.90
2010,07,18,09,48,17.90
2010,07,18,09,49,17.90
2010,07,18,09,50,17.90
2010,07,18,09,51,17.90
2010,07,18,09,52,17.90
2010,07,18,09,53,18.00
2010,07,18,09,54,18.00
2010,07,18,09,55,18.10
2010,07,18,09,56,18.20
2010,07,18,09,57,18.20
2010,07,18,09,58,18.30
2010,07,18,09,59,18.30
2010,07,18,10,00,18.30
2010,07,18,10,01,18.30
2010,07,18,10,02,18.30
2010,07,18,10,03,18.30
2010,07,18,10,04,18.30
2010,07,18,10,05,18.30
2010,07,18,10,06,18.30
2010,07,18,10,07,18.20
2010,07,18,10,08,18.20
2010,07,18,10,09,18.10
2010,07,18,10,10,18.10
2010,07,18,10,11,18.10
2010,07,18,10,12,18.20
2010,07,18,10,13,18.20
2010,07,18,10,14,18.30
2010,07,18,10,15,18.40
2010,07,18,10,16,18.50
2010,07,18,10,17,18.50
2010,07,18,10,18,18.40
2010,07,18,10,19,18.40
2010,07,18,10,20,18.30
2010,07,18,10,21,18.20
2010,07,18,10,22,18.20
2010,07,18,10,23,18.20
2010,07,18,10,24,18.20
2010,07,18,10,25,18.20
2010,07,18,10,26,18.30
2010,07,18,10,27,18.20
2010,07,18,10,28,18.20
2010,07,18,10,29,18.20
2010,07,18,10,30,18.20
2010,07,18,10,31,18.20
2010,07,18,10,32,18.20
2010,07,18,10,33,18.20
2010,07,18,10,34,18.20
2010,07,18,10,35,18.20
2010,07,18,10,36,18.20
2010,07,18,10,37,18.20
2010,07,18,10,38,18.20
2010,07,18,10,39,18.20
2010,07,18,10,40,18.20
2010,07,18,10,41,18.20
2010,07,18,10,42,18.10
2010,07,18,10,43,18.00
2010,07,18,10,44,17.80
2010,07,18,10,45,17.70
2010,07,18,10,46,17.60
2010,07,18,10,47,17.60
2010,07,18,10,48,17.50
2010,07,18,10,49,17.50
2010,07,18,10,50,17.40
2010,07,18,10,51,17.50
2010,07,18,10,52,17.50
2010,07,18,10,53,17.50
2010,07,18,10,54,17.40
2010,07,18,10,55,17.30
2010,07,18,10,56,17.30
2010,07,18,10,57,17.20
2010,07,18,10,58,17.20
2010,07,18,10,59,17.20
2010,07,18,11,00,17.20
2010,07,18,11,01,17.30
2010,07,18,11,02,17.30
2010,07,18,11,03,17.30
2010,07,18,11,04,17.30
2010,07,18,11,05,17.40
2010,07,18,11,06,17.40
2010,07,18,11,07,17.40
2010,07,18,11,08,17.40
2010,07,18,11,09,17.40
2010,07,18,11,10,17.30
2010,07,18,11,11,17.10
2010,07,18,11,12,17.10
2010,07,18,11,13,17.20
2010,07,18,11,14,17.10
2010,07,18,11,15,17.10
2010,07,18,11,16,17.10
2010,07,18,11,17,17.10
2010,07,18,11,18,17.20
2010,07,18,11,19,17.20
2010,07,18,11,20,17.30
2010,07,18,11,21,17.20
2010,07,18,11,22,17.20
2010,07,18,11,23,17.20
2010,07,18,11,24,17.30
2010,07,18,11,25,17.30
2010,07,18,11,26,17.20
2010,07,18,11,27,17.10
2010,07,18,11,28,17.00
2010,07,18,11,29,16.90
2010,07,18,11,30,16.80
2010,07,18,11,31,16.80
2010,07,18,11,32,16.70
2010,07,18,11,33,16.60
2010,07,18,11,34,16.50
2010,07,18,11,35,16.40
2010,07,18,11,36,16.40
2010,07,18,11,37,16.30
2010,07,18,11,38,16.30
2010,07,18,11,39,16.20
2010,07,18,11,40,16.20
2010,07,18,11,41,16.10
2010,07,18,11,42,16.10
2010,07,18,11,43,16.00
2010,07,18,11,44,15.90
2010,07,18,11,45,15.80
2010,07,18,11,46,15.80
2010,07,18,11,47,15.80
2010,07,18,11,48,15.80
2010,07,18,11,49,15.80
2010,07,18,11,50,15.80
2010,07,18,11,51,15.80
2010,07,18,11,52,15.90
2010,07,18,11,53,16.00
2010,07,18,11,54,16.10
2010,07,18,11,55,16.20
2010,07,18,11,56,16.30
2010,07,18,11,57,16.30
2010,07,18,11,58,16.20
2010,07,18,11,59,16.10
2010,07,18,12,00,15.90
2010,07,18,12,01,15.90
2010,07,18,12,02,15.80
2010,07,18,12,03,15.90
2010,07,18,12,04,15.90
2010,07,18,12,05,15.90
2010,07,18,12,06,15.80
2010,07,18,12,07,15.70
2010,07,18,12,08,15.70
2010,07,18,12,09,15.60
2010,07,18,12,10,15.50
2010,07,18,12,11,15.40
2010,07,18,12,12,15.50
2010,07,18,12,13,15.40
2010,07,18,12,14,15.40
2010,07,18,12,15,15.40
2010,07,18,12,16,15.40
2010,07,18,12,17,15.30
2010,07,18,12,18,15.30
2010,07,18,12,19,15.30
2010,07,18,12,20,15.30
2010,07,18,12,21,15.40
2010,07,18,12,22,15.40
2010,07,18,12,23,15.40
2010,07,18,12,24,15.40
2010,07,18,12,25,15.40
2010,07,18,12,26,15.30
2010,07,18,12,27,15.30
2010,07,18,12,28,15.30
2010,07,18,12,29,15.40
2010,07,18,12,30,15.40
2010,07,18,12,31,15.40
2010,07,18,12,32,15.40
2010,07,18,12,33,15.30
2010,07,18,12,34,15.30
2010,07,18,12,35,15.20
2010,07,18,12,36,15.30
2010,07,18,12,37,15.30
2010,07,18,12,38,15.20
2010,07,18,12,39,15.20
2010,07,18,12,40,15.20
2010,07,18,12,41,15.20
2010,07,18,12,42,15.20
2010,07,18,12,43,15.30
2010,07,18,12,44,15.30
2010,07,18,12,45,15.20
2010,07,18,12,46,15.20
2010,07,18,12,47,15.30
2010,07,18,12,48,15.50
2010,07,18,12,49,15.60
2010,07,18,12,50,15.60
2010,07,18,12,51,15.60
2010,07,18,12,52,15.60
2010,07,18,12,53,15.70
2010,07,18,12,54,15.70
2010,07,18,12,55,15.70
2010,07,18,12,56,15.80
2010,07,18,12,57,15.80
2010,07,18,12,58,15.80
2010,07,18,12,59,15.80
2010,07,18,13,00,15.80
2010,07,18,13,01,15.80
2010,07,18,13,02,15.90
2010,07,18,13,03,15.80
2010,07,18,13,04,15.70
2010,07,18,13,05,15.60
2010,07,18,13,06,15.60
2010,07,18,13,07,15.60
2010,07,18,13,08,15.60
2010,07,18,13,09,15.60
2010,07,18,13,10,15.70
2010,07,18,13,11,15.80
2010,07,18,13,12,15.80
2010,07,18,13,13,15.80
2010,07,18,13,14,15.90
2010,07,18,13,15,16.00
2010,07,18,13,16,16.10
2010,07,18,13,17,16.10
2010,07,18,13,18,16.20
2010,07,18,13,19,16.20
2010,07,18,13,20,16.10
2010,07,18,13,21,16.10
2010,07,18,13,22,16.10
2010,07,18,13,23,16.20
2010,07,18,13,24,16.30
2010,07,18,13,25,16.50
2010,07,18,13,26,16.50
2010,07,18,13,27,16.50
2010,07,18,13,28,16.50
2010,07,18,13,29,16.40
2010,07,18,13,30,16.20
2010,07,18,13,31,16.00
2010,07,18,13,32,16.00
2010,07,18,13,33,16.00
2010,07,18,13,34,16.10
2010,07,18,13,35,16.20
2010,07,18,13,36,16.30
2010,07,18,13,37,16.30
2010,07,18,13,38,16.30
2010,07,18,13,39,16.30
2010,07,18,13,40,16.30
2010,07,18,13,41,16.30
2010,07,18,13,42,16.40
2010,07,18,13,43,16.30
2010,07,18,13,44,16.30
2010,07,18,13,45,16.30
2010,07,18,13,46,16.20
2010,07,18,13,47,16.20
2010,07,18,13,48,16.20
2010,07,18,13,49,16.10
2010,07,18,13,50,16.10
2010,07,18,13,51,16.00
2010,07,18,13,52,16.00
2010,07,18,13,53,16.00
2010,07,18,13,54,16.00
2010,07,18,13,55,16.00
2010,07,18,13,56,16.10
2010,07,18,13,57,16.20
2010,07,18,13,58,16.20
2010,07,18,13,59,16.20
2010,07,18,14,00,16.20
2010,07,18,14,01,16.30
2010,07,18,14,02,16.40
2010,07,18,14,03,16.40
2010,07,18,14,04,16.30
2010,07,18,14,05,16.30
2010,07,18,14,06,16.30
2010,07,18,14,07,16.20
2010,07,18,14,08,16.20
2010,07,18,14,09,16.20
2010,07,18,14,10,16.20
2010,07,18,14,11,16.30
2010,07,18,14,12,16.40
2010,07,18,14,13,16.40
2010,07,18,14,14,16.30
2010,07,18,14,15,16.30
2010,07,18,14,16,16.30
2010,07,18,14,17,16.30
2010,07,18,14,18,16.30
2010,07,18,14,19,16.40
2010,07,18,14,20,16.50
2010,07,18,14,21,16.50
2010,07,18,14,22,16.50
2010,07,18,14,23,16.50
2010,07,18,14,24,16.60
2010,07,18,14,25,16.60
2010,07,18,14,26,16.60
2010,07,18,14,27,16.60
2010,07,18,14,28,16.50
2010,07,18,14,29,16.60
2010,07,18,14,30,16.60
2010,07,18,14,31,16.60
2010,07,18,14,32,16.60
2010,07,18,14,33,16.60
2010,07,18,14,34,16.60
2010,07,18,14,35,16.70
2010,07,18,14,36,16.60
2010,07,18,14,37,16.50
2010,07,18,14,38,16.50
2010,07,18,14,39,16.50
2010,07,18,14,40,16.50
2010,07,18,14,41,16.60
2010,07,18,14,42,16.60
2010,07,18,14,43,16.50
2010,07,18,14,44,16.50
2010,07,18,14,45,16.50
2010,07,18,14,46,16.50
2010,07,18,14,47,16.50
2010,07,18,14,48,16.60
2010,07,18,14,49,16.60
2010,07,18,14,50,16.70
2010,07,18,14,51,16.70
2010,07,18,14,52,16.70
2010,07,18,14,53,16.70
2010,07,18,14,54,16.60
2010,07,18,14,55,16.70
2010,07,18,14,56,16.80
2010,07,18,14,57,16.90
2010,07,18,14,58,17.00
2010,07,18,14,59,17.10
2010,07,18,15,00,17.10
2010,07,18,15,01,17.20
2010,07,18,15,02,17.20
2010,07,18,15,03,17.30
2010,07,18,15,04,17.30
2010,07,18,15,05,17.30
2010,07,18,15,06,17.20
2010,07,18,15,07,17.30
2010,07,18,15,08,17.30
2010,07,18,15,09,17.30
2010,07,18,15,10,17.20
2010,07,18,15,11,17.10
2010,07,18,15,12,17.00
2010,07,18,15,13,16.90
2010,07,18,15,14,16.90
2010,07,18,15,15,16.80
2010,07,18,15,16,16.70
2010,07,18,15,17,16.80
2010,07,18,15,18,16.90
2010,07,18,15,19,16.90
2010,07,18,15,20,16.90
2010,07,18,15,21,16.90
2010,07,18,15,22,16.90
2010,07,18,15,23,16.90
2010,07,18,15,24,16.90
2010,07,18,15,25,16.90
2010,07,18,15,26,16.90
2010,07,18,15,27,16.90
2010,07,18,15,28,16.80
2010,07,18,15,29,16.70
2010,07,18,15,30,16.60
2010,07,18,15,31,16.60
2010,07,18,15,32,16.60
2010,07,18,15,33,16.60
2010,07,18,15,34,16.70
2010,07,18,15,35,16.70
2010,07,18,15,36,16.70
2010,07,18,15,37,16.70
2010,07,18,15,38,16.80
2010,07,18,15,39,16.90
2010,07,18,15,40,17.00
2010,07,18,15,41,17.10
2010,07,18,15,42,17.10
2010,07,18,15,43,17.10
2010,07,18,15,44,17.10
2010,07,18,15,45,17.20
2010,07,18,15,46,17.20
2010,07,18,15,47,17.30
2010,07,18,15,48,17.20
2010,07,18,15,49,17.10
2010,07,18,15,50,17.00
2010,07,18,15,51,16.90
2010,07,18,15,52,16.80
2010,07,18,15,53,16.80
2010,07,18,15,54,16.80
2010,07,18,15,55,16.90
2010,07,18,15,56,17.00
2010,07,18,15,57,17.10
2010,07,18,15,58,17.10
2010,07,18,15,59,17.00
2010,07,18,16,00,16.90
2010,07,18,16,01,16.80
2010,07,18,16,02,16.80
2010,07,18,16,03,16.80
2010,07,18,16,04,16.90
2010,07,18,16,05,16.80
2010,07,18,16,06,16.80
2010,07,18,16,07,16.80
2010,07,18,16,08,16.90
2010,07,18,16,09,16.90
2010,07,18,16,10,17.00
2010,07,18,16,11,17.00
2010,07,18,16,12,17.00
2010,07,18,16,13,17.00
2010,07,18,16,14,17.00
2010,07,18,16,15,17.00
2010,07,18,16,16,17.00
2010,07,18,16,17,17.00
2010,07,18,16,18,16.90
2010,07,18,16,19,16.90
2010,07,18,16,20,17.00
2010,07,18,16,21,17.00
2010,07,18,16,22,17.10
2010,07,18,16,23,17.20
2010,07,18,16,24,17.20
2010,07,18,16,25,17.30
2010,07,18,16,26,17.30
2010,07,18,16,27,17.30
2010,07,18,16,28,17.30
2010,07,18,16,29,17.10
2010,07,18,16,30,16.90
2010,07,18,16,31,16.70
2010,07,18,16,32,16.60
2010,07,18,16,33,16.60
2010,07,18,16,34,16.50
2010,07,18,16,35,16.50
2010,07,18,16,36,16.40
2010,07,18,16,37,16.40
2010,07,18,16,38,16.50
2010,07,18,16,39,16.60
2010,07,18,16,40,16.70
2010,07,18,16,41,16.70
2010,07,18,16,42,16.70
2010,07,18,16,43,16.70
2010,07,18,16,44,16.60
2010,07,18,16,45,16.60
2010,07,18,16,46,16.60
2010,07,18,16,47,16.70
2010,07,18,16,48,16.70
2010,07,18,16,49,16.70
2010,07,18,16,50,16.80
2010,07,18,16,51,16.80
2010,07,18,16,52,17.00
2010,07,18,16,53,17.00
2010,07,18,16,54,16.90
2010,07,18,16,55,16.80
2010,07,18,16,56,16.80
2010,07,18,16,57,16.80
2010,07,18,16,58,16.80
2010,07,18,16,59,16.80
2010,07,18,17,00,16.80
2010,07,18,17,01,16.80
2010,07,18,17,02,16.80
2010,07,18,17,03,16.90
2010,07,18,17,04,16.90
2010,07,18,17,05,17.00
2010,07,18,17,06,17.00
2010,07,18,17,07,17.00
2010,07,18,17,08,16.90
2010,07,18,17,09,16.80
2010,07,18,17,10,16.80
2010,07,18,17,11,16.80
2010,07,18,17,12,16.90
2010,07,18,17,13,16.90
2010,07,18,17,14,17.00
2010,07,18,17,15,17.00
2010,07,18,17,16,17.00
2010,07,18,17,17,16.90
2010,07,18,17,18,17.00
2010,07,18,17,19,17.10
2010,07,18,17,20,17.10
2010,07,18,17,21,17.10
2010,07,18,17,22,17.10
2010,07,18,17,23,17.10
2010,07,18,17,24,17.10
2010,07,18,17,25,17.20
2010,07,18,17,26,17.20
2010,07,18,17,27,17.20
2010,07,18,17,28,17.10
2010,07,18,17,29,17.10
2010,07,18,17,30,17.10
2010,07,18,17,31,17.10
2010,07,18,17,32,17.10
2010,07,18,17,33,17.10
2010,07,18,17,34,17.20
2010,07,18,17,35,17.20
2010,07,18,17,36,17.20
2010,07,18,17,37,17.20
2010,07,18,17,38,17.20
2010,07,18,17,39,17.20
2010,07,18,17,40,17.20
2010,07,18,17,41,17.20
2010,07,18,17,42,17.20
2010,07,18,17,43,17.20
2010,07,18,17,44,17.10
2010,07,18,17,45,17.10
2010,07,18,17,46,17.10
2010,07,18,17,47,17.10
2010,07,18,17,48,17.10
2010,07,18,17,49,17.20
2010,07,18,17,50,17.20
2010,07,18,17,51,17.20
2010,07,18,17,52,17.30
2010,07,18,17,53,17.30
2010,07,18,17,54,17.30
2010,07,18,17,55,17.40
2010,07,18,17,56,17.40
2010,07,18,17,57,17.50
2010,07,18,17,58,17.50
2010,07,18,17,59,17.60
2010,07,18,18,00,17.60
2010,07,18,18,01,17.60
2010,07,18,18,02,17.60
2010,07,18,18,03,17.60
2010,07,18,18,04,17.60
2010,07,18,18,05,17.60
2010,07,18,18,06,17.60
2010,07,18,18,07,17.60
2010,07,18,18,08,17.60
2010,07,18,18,09,17.50
2010,07,18,18,10,17.40
2010,07,18,18,11,17.40
2010,07,18,18,12,17.40
2010,07,18,18,13,17.40
2010,07,18,18,14,17.40
2010,07,18,18,15,17.30
2010,07,18,18,16,17.30
2010,07,18,18,17,17.30
2010,07,18,18,18,17.40
2010,07,18,18,19,17.40
2010,07,18,18,20,17.50
2010,07,18,18,21,17.50
2010,07,18,18,22,17.60
2010,07,18,18,23,17.70
2010,07,18,18,24,17.80
2010,07,18,18,25,17.80
2010,07,18,18,26,17.80
2010,07,18,18,27,17.70
2010,07,18,18,28,17.60
2010,07,18,18,29,17.50
2010,07,18,18,30,17.40
2010,07,18,18,31,17.30
2010,07,18,18,32,17.20
2010,07,18,18,33,17.00
2010,07,18,18,34,17.00
2010,07,18,18,35,17.00
2010,07,18,18,36,17.00
2010,07,18,18,37,16.90
2010,07,18,18,38,16.90
2010,07,18,18,39,16.90
2010,07,18,18,40,16.90
2010,07,18,18,41,16.80
2010,07,18,18,42,16.80
2010,07,18,18,43,16.70
2010,07,18,18,44,16.70
2010,07,18,18,45,16.60
2010,07,18,18,46,16.50
2010,07,18,18,47,16.50
2010,07,18,18,48,16.50
2010,07,18,18,49,16.50
2010,07,18,18,50,16.50
2010,07,18,18,51,16.60
2010,07,18,18,52,16.60
2010,07,18,18,53,16.60
2010,07,18,18,54,16.60
2010,07,18,18,55,16.70
2010,07,18,18,56,16.70
2010,07,18,18,57,16.70
2010,07,18,18,58,16.60
2010,07,18,18,59,16.60
2010,07,18,19,00,16.60
2010,07,18,19,01,16.60
2010,07,18,19,02,16.60
2010,07,18,19,03,16.60
2010,07,18,19,04,16.60
2010,07,18,19,05,16.60
2010,07,18,19,06,16.60
2010,07,18,19,07,16.60
2010,07,18,19,08,16.60
2010,07,18,19,09,16.60
